[[{"header":{"parameterUnit":"m.s-1","parameterCategory":1,"la1":30.2992,"la2":30.254,"lo1":-89.0895,"lo2":-89.0443,"dy":0.0025,"dx":0.0025,"nx":19,"ny":19,"refTime":"2026-04-15T09:00:00:Z","depth":0,"parameterNumber":2,"parameterNumberName":"U-component_of_WINDS"},"data":[0,0,0,-3.6415,-3.6418,-3.6593,-3.6594,-3.6819,-3.6821,0,0,0,0,0,0,0,0,0,0,0,-3.6363,-3.6364,-3.6414,-3.6419,-3.6593,-3.6594,-3.6818,-3.6821,0,0,0,0,0,0,0,0,0,0,0,-3.6362,-3.6364,-3.6366,-3.6419,-3.6593,-3.6594,-3.6818,-3.6686,0,0,0,0,0,0,0,0,0,0,-3.6516,-3.6467,-3.6363,-3.6366,-3.642,-3.6593,-3.6594,-3.6679,-3.6694,-3.674,0,-3.6779,0,-3.6804,-3.6836,-3.6836,0,0,0,-3.6419,-3.6455,-3.6503,-3.6366,-3.6422,-3.6593,-3.6515,-3.6687,-3.6704,-3.6759,-3.6783,-3.6791,-3.6807,-3.6837,-3.6838,-3.7099,-3.71,0,0,-3.6409,-3.6394,-3.6491,-3.6513,-3.6486,-3.6509,-3.652,-3.6697,-3.6722,-3.6783,-3.6796,-3.6811,-3.6839,-3.684,-3.7098,-3.7099,0,0,0,-3.6382,-3.6387,-3.643,-3.6504,-3.6535,-3.6514,-3.6527,-3.6715,-3.673,-3.6799,-3.6814,-3.684,-3.6843,-3.7097,-3.7098,-3.7142,0,0,0,-3.6376,-3.6371,-3.6426,-3.6418,-3.6532,-3.6627,-3.654,-3.6718,-3.6738,-3.6812,-3.684,-3.6845,-3.7095,-3.7098,-3.7138,-3.7164,0,0,0,-3.6351,-3.6368,-3.6393,-3.6417,-3.6492,-3.6624,-3.665,-3.6722,-3.6747,-3.6837,-3.6845,-3.7094,-3.7097,-3.7134,-3.7158,-3.7227,0,0,0,-3.6321,-3.643,-3.6394,-3.6522,-3.649,-3.665,-3.6649,-3.6769,-3.6851,-3.6841,-3.7095,-3.7098,-3.7133,-3.7155,-3.7223,-3.7281,-3.7304,0,0,-3.6449,-3.6445,-3.6521,-3.6494,-3.6656,-3.6625,-3.6794,-3.6884,-3.6907,-3.7034,-3.7041,-3.7139,-3.7158,-3.7226,-3.7442,-3.746,0,0,0,-3.6557,-3.6611,-3.6657,-3.6734,-3.6806,-3.6869,-3.6935,-3.6969,-3.7077,-3.6969,-3.7184,-3.7196,-3.7237,-3.7265,-3.728,-3.7316,-3.7111,-3.7111,-3.7111,-3.6714,-3.6738,-3.6866,-3.6912,-3.6987,-3.7054,-3.7117,-3.7174,-3.7176,-3.7227,-3.7264,-3.7392,-3.7424,-3.7436,-3.7473,-3.7298,-3.7298,-3.7299,-3.7299,-3.6903,-3.6983,-3.6985,-3.7109,-3.7135,-3.724,-3.731,-3.7308,-3.741,-3.7366,-3.7403,-3.735,-3.7455,-3.7489,-3.7302,-3.7302,-3.7301,-3.7301,-3.7301,-3.7007,-3.705,-3.7089,-3.7204,-3.729,-3.7333,-3.7431,-3.7451,-3.7471,-3.7508,-3.7549,-3.7548,-3.7548,-3.7526,-3.7527,-3.7527,-3.7528,-3.7528,-3.7528,-3.7098,-3.7142,-3.7221,-3.7307,-3.736,-3.7432,-3.7502,-3.7555,-3.7619,-3.7626,-3.7626,-3.7623,-3.7462,-3.7419,-3.7535,-3.7534,-3.7533,-3.7533,-3.7532,-3.7277,-3.724,-3.7362,-3.7415,-3.7518,-3.7602,-3.7628,-3.7734,-3.7781,-3.7829,-3.7819,-3.7697,-3.7693,-3.7681,-3.7646,-3.7814,-3.7814,-3.7814,-3.7814,-3.7363,-3.7364,-3.7493,-3.7576,-3.766,-3.7696,-3.7835,-3.7892,-3.7945,-3.7976,-3.7955,-3.7912,-3.7899,-3.7903,-3.7886,-3.7853,-3.807,-3.807,-3.807,-3.7473,-3.7483,-3.7596,-3.7647,-3.773,-3.7801,-3.7932,-3.8028,-3.8081,-3.8081,-3.8,-3.7989,-3.7919,-3.7895,-3.789,-3.7863,-3.7804,0,0]},{"header":{"parameterUnit":"m.s-1","parameterCategory":1,"la1":30.2992,"la2":30.254,"lo1":-89.0895,"lo2":-89.0443,"dy":0.0025,"dx":0.0025,"nx":19,"ny":19,"refTime":"2026-04-15T09:00:00:Z","depth":0,"parameterNumber":3,"parameterNumberName":"V-component_of_WINDS"},"data":[0,0,0,3.6131,3.6133,3.6226,3.6227,3.6338,3.6339,0,0,0,0,0,0,0,0,0,0,0,3.6103,3.6103,3.6131,3.6133,3.6226,3.6227,3.6338,3.6339,0,0,0,0,0,0,0,0,0,0,0,3.6102,3.6103,3.6104,3.6134,3.6226,3.6227,3.6338,3.6269,0,0,0,0,0,0,0,0,0,0,3.618,3.6154,3.6103,3.6104,3.6134,3.6226,3.6227,3.6266,3.6274,3.6294,0,3.6316,0,3.633,3.6347,3.6347,0,0,0,3.6133,3.6148,3.6174,3.6104,3.6135,3.6226,3.6184,3.627,3.6279,3.6304,3.6317,3.6322,3.6332,3.6348,3.6348,3.6477,3.6478,0,0,3.6128,3.6118,3.6168,3.618,3.6169,3.6181,3.6187,3.6276,3.6288,3.6318,3.6324,3.6333,3.6348,3.6349,3.6477,3.6477,0,0,0,3.6113,3.6114,3.6139,3.6175,3.6192,3.6184,3.6191,3.6284,3.6293,3.6326,3.6335,3.6349,3.635,3.6476,3.6477,3.6499,0,0,0,3.611,3.6106,3.6136,3.6131,3.6191,3.624,3.6197,3.6287,3.6297,3.6334,3.6349,3.6351,3.6475,3.6477,3.6497,3.6511,0,0,0,3.6097,3.6104,3.6118,3.6131,3.6171,3.6239,3.6253,3.6289,3.6303,3.6347,3.6352,3.6475,3.6476,3.6496,3.6508,3.6541,0,0,0,3.6079,3.6135,3.6118,3.6185,3.617,3.6254,3.6252,3.6314,3.6355,3.635,3.6476,3.6477,3.6495,3.6506,3.6539,3.6567,3.6579,0,0,3.6144,3.6143,3.6183,3.617,3.6255,3.624,3.6327,3.6371,3.6383,3.6444,3.6447,3.6498,3.6507,3.6541,3.6648,3.6657,0,0,0,3.62,3.6228,3.6253,3.6293,3.6332,3.6364,3.6398,3.6414,3.6468,3.6414,3.652,3.6526,3.6546,3.656,3.6567,3.6584,3.6483,3.6483,3.6483,3.6277,3.6291,3.6358,3.6384,3.6423,3.6458,3.649,3.6517,3.6518,3.6543,3.6561,3.6625,3.664,3.6646,3.6664,3.6578,3.6578,3.6578,3.6578,3.6373,3.6414,3.6418,3.6483,3.6497,3.655,3.6586,3.6585,3.6635,3.6612,3.663,3.6603,3.6656,3.6672,3.658,3.658,3.658,3.6579,3.6579,3.6423,3.6446,3.6468,3.6529,3.6573,3.6597,3.6646,3.6656,3.6665,3.6684,3.6702,3.6702,3.6702,3.6692,3.6693,3.6693,3.6693,3.6693,3.6693,3.6466,3.6491,3.6533,3.658,3.6607,3.6644,3.6681,3.6707,3.6738,3.6741,3.6742,3.6738,3.666,3.6638,3.6697,3.6696,3.6696,3.6695,3.6695,3.6555,3.6538,3.6602,3.663,3.6686,3.6728,3.6742,3.6795,3.6818,3.6841,3.6836,3.6776,3.6774,3.6768,3.675,3.6834,3.6834,3.6834,3.6834,3.6597,3.6598,3.6667,3.6711,3.6755,3.6775,3.6844,3.6872,3.6898,3.6913,3.6902,3.6881,3.6874,3.6876,3.6867,3.6851,3.6958,3.6958,3.6958,3.6652,3.6658,3.6716,3.6746,3.679,3.6826,3.6891,3.6939,3.6964,3.6964,3.6924,3.6919,3.6884,3.6872,3.6868,3.6855,3.6825,0,0]}]]